Zurück zum Katalog

STARLINK-31948

AktivKommunikationVLEO
NORAD 59941·PAYLOAD·🇺🇸 United States

Gestartet Jun 1, 2024 von Cape Canaveral Space Force Station

Loading…

Nächste Überflüge (nächste 24 Stunden)

TLE

AktuellSource: CelesTrak SupGP

Epoche: Sep 14, 2026, 21:09 UTC

1 59941C 24106V   26257.88173611 -.00016451  00000+0 -59586-3 0  2579
2 59941  43.0032 340.8121 0001471 265.3297  95.2925 15.27586366    10

Verfolge STARLINK-31948 in Echtzeit mit AllMySat

Download on the App Store